Powrót do katalogu

FENGYUN 1C DEB

AktywnySSO
NORAD 29888·DEBRIS·🇨🇳 China

Wystrzelony May 10, 1999 z Taiyuan Satellite Launch Center

Loading…

Następne Przeloty (najbliższe 24 godziny)

TLE

ŚwieżeSource: Space-Track

Epoka: Sep 14, 2026, 10:06 UTC

1 29888U 99025GJ  26257.42092139  .00000580  00000-0  20405-3 0  9999
2 29888  99.1746 106.0987 0272072 321.1204  37.0675 14.20570475 14151

Śledź FENGYUN 1C DEB w czasie rzeczywistym z AllMySat

Download on the App Store